Find Starlink 37325

NORAD ID: 69154 Int'l Des: 2026-111 Owner: SPXS Country: US Constellation: starlink operational
LEOCIRCULARRETROGRADESSO

当前视图

正在加载3D地球...

关于 Starlink 37325

正在加载描述...

即将过境

Passes for default location (London). Set your location on the main map for personalized predictions.

高度历史

Loading altitude history...

两行轨道根数

1 69154C 26082W 26144.88173611 -.00013953 00000+0 -25711-3 0 1448
2 69154 97.2851 8.4203 0001914 90.4049 46.2592 15.49189979 18
Epoch: May 24, 2026 • Age: 30 hours

当前状态

高度 423.0 km
速度 7.66 km/s
星下点 33.93°N, 30.72°E
发射日期 May 21, 2026
运行时间 3 days
类型 internet

技术详情

分类 Payload
质量 575.00 kg
干质量 530.00 kg
总质量 575.00 kg
长度 0.30 m
直径 4.10 m
跨度 29.00 m
形状 Box + pan
制造商 SPXS
平台类型 Starlink V2MO
阶段状态 In Orbit
所有者/国家 SPXS/US

Most Searched